Вернуться в каталог

FENGYUN 1C DEB

АктивенSSO
NORAD 30289·DEBRIS·🇨🇳 China

Запущен May 10, 1999 с Taiyuan Satellite Launch Center

Loading…

Ближайшие Пролёты (ближайшие 24 часа)

TLE

СвежийSource: Space-Track

Эпоха: Sep 14, 2026, 14:04 UTC

1 30289U 99025ZA  26257.58621416  .00003094  00000-0  12508-2 0  9996
2 30289  98.9292   4.7394 0035699 248.9445 238.3064 14.28255718 10086

Отслеживайте FENGYUN 1C DEB в реальном времени с AllMySat

Download on the App Store